Hourly Weather Hamilton

Today, 1 October, Thursday

Time Temperature Precipitation Wind Pressure Humidity
00:00 +10°C° 0.1 mm 5 mps 739 mmHg 86%
01:00 +11°C° 0 mm 4 mps 740 mmHg 88%
02:00 +9°C° 0 mm 5 mps 740 mmHg 89%
03:00 +9°C° 0 mm 5 mps 740 mmHg 90%
04:00 +9°C° 0 mm 5 mps 740 mmHg 91%
05:00 +8°C° 0 mm 5 mps 741 mmHg 91%
06:00 +8°C° 0 mm 5 mps 741 mmHg 92%
07:00 +8°C° 0 mm 5 mps 742 mmHg 92%
08:00 +10°C° 0 mm 5 mps 742 mmHg 86%
09:00 +12°C° 0 mm 5 mps 743 mmHg 79%
10:00 +13°C° 0 mm 5 mps 743 mmHg 73%
11:00 +14°C° 0 mm 5 mps 743 mmHg 67%
12:00 +15°C° 0 mm 5 mps 743 mmHg 61%
13:00 +16°C° 0 mm 5 mps 744 mmHg 55%
14:00 +16°C° 0.2 mm 5 mps 743 mmHg 57%
15:00 +15°C° 0.2 mm 5 mps 743 mmHg 58%
16:00 +15°C° 0.2 mm 5 mps 743 mmHg 60%
17:00 +14°C° 0.3 mm 4 mps 743 mmHg 66%
18:00 +13°C° 0.3 mm 3 mps 744 mmHg 71%
19:00 +12°C° 0.3 mm 2 mps 744 mmHg 77%
20:00 +12°C° 0.1 mm 2 mps 744 mmHg 79%
21:00 +11°C° 0.1 mm 1 mps 744 mmHg 80%
22:00 +11°C° 0.1 mm 1 mps 744 mmHg 81%
23:00 +10°C° 0.2 mm 1 mps 744 mmHg 83%

Tomorrow, 2 October, Friday

Time Temperature Precipitation Wind Pressure Humidity
00:00 +9°C° 0.2 mm 2 mps 744 mmHg 85%
01:00 +9°C° 0.2 mm 2 mps 744 mmHg 86%
02:00 +8°C° 0.1 mm 2 mps 744 mmHg 88%
03:00 +8°C° 0.1 mm 3 mps 744 mmHg 89%
04:00 +8°C° 0.1 mm 3 mps 744 mmHg 91%
05:00 +8°C° 0 mm 3 mps 745 mmHg 89%
06:00 +7°C° 0 mm 4 mps 745 mmHg 88%
07:00 +6°C° 0 mm 4 mps 746 mmHg 87%
08:00 +7°C° 0 mm 4 mps 746 mmHg 84%
09:00 +7°C° 0 mm 4 mps 746 mmHg 81%
10:00 +8°C° 0 mm 4 mps 747 mmHg 78%
11:00 +9°C° 0.1 mm 3 mps 747 mmHg 76%
12:00 +10°C° 0.1 mm 3 mps 747 mmHg 75%
13:00 +10°C° 0.1 mm 2 mps 748 mmHg 73%
14:00 +10°C° 0 mm 2 mps 748 mmHg 74%
15:00 +10°C° 0 mm 2 mps 748 mmHg 75%
16:00 +10°C° 0 mm 2 mps 748 mmHg 77%
17:00 +9°C° 0.1 mm 2 mps 748 mmHg 79%
18:00 +9°C° 0.1 mm 2 mps 749 mmHg 81%
19:00 +9°C° 0.1 mm 2 mps 749 mmHg 83%
20:00 +9°C° 0 mm 2 mps 749 mmHg 83%
21:00 +8°C° 0 mm 2 mps 750 mmHg 83%
22:00 +8°C° 0 mm 2 mps 750 mmHg 82%
23:00 +8°C° 0 mm 2 mps 750 mmHg 82%

Day after tomorrow, 3 October, Saturday

Time Temperature Precipitation Wind Pressure Humidity
00:00 +7°C° 0 mm 2 mps 750 mmHg 82%
01:00 +6°C° 0 mm 2 mps 750 mmHg 82%
02:00 +6°C° 0 mm 2 mps 751 mmHg 81%
03:00 +6°C° 0 mm 2 mps 751 mmHg 79%
04:00 +6°C° 0 mm 2 mps 751 mmHg 78%
05:00 +6°C° 0 mm 2 mps 751 mmHg 77%
06:00 +5°C° 0 mm 2 mps 751 mmHg 75%
07:00 +5°C° 0 mm 2 mps 751 mmHg 74%
08:00 +8°C° 0 mm 1 mps 752 mmHg 67%
09:00 +9°C° 0 mm 1 mps 752 mmHg 59%
10:00 +10°C° 0 mm 0 mps 752 mmHg 52%
11:00 +12°C° 0 mm 1 mps 752 mmHg 49%
12:00 +13°C° 0 mm 1 mps 752 mmHg 46%
13:00 +14°C° 0 mm 2 mps 752 mmHg 44%
14:00 +14°C° 0 mm 2 mps 752 mmHg 48%
15:00 +13°C° 0 mm 2 mps 752 mmHg 51%
16:00 +13°C° 0 mm 1 mps 751 mmHg 55%
17:00 +12°C° 0.2 mm 1 mps 751 mmHg 61%
18:00 +11°C° 0.2 mm 1 mps 752 mmHg 68%
19:00 +11°C° 0.2 mm 1 mps 752 mmHg 74%
20:00 +10°C° 0.1 mm 1 mps 752 mmHg 76%
21:00 +10°C° 0.1 mm 1 mps 752 mmHg 77%
22:00 +9°C° 0.1 mm 1 mps 752 mmHg 79%
23:00 +9°C° 0 mm 1 mps 752 mmHg 79%

4 October, Sunday

Time Temperature Precipitation Wind Pressure Humidity
00:00 +8°C° 0 mm 0 mps 751 mmHg 79%
01:00 +8°C° 0 mm 0 mps 751 mmHg 79%
02:00 +8°C° 0.3 mm 0 mps 751 mmHg 81%
03:00 +8°C° 0.3 mm 0 mps 751 mmHg 84%
04:00 +8°C° 0.3 mm 0 mps 751 mmHg 86%
05:00 +9°C° 0.4 mm 1 mps 751 mmHg 87%
06:00 +9°C° 0.4 mm 1 mps 751 mmHg 88%
07:00 +8°C° 0.4 mm 2 mps 751 mmHg 89%
08:00 +8°C° 0.4 mm 2 mps 751 mmHg 89%
09:00 +9°C° 0.4 mm 1 mps 751 mmHg 88%
10:00 +9°C° 0.4 mm 1 mps 751 mmHg 87%
11:00 +8°C° 0.5 mm 2 mps 751 mmHg 87%
12:00 +8°C° 0.5 mm 2 mps 750 mmHg 88%
13:00 +9°C° 0.5 mm 2 mps 750 mmHg 88%
14:00 +9°C° 0.2 mm 2 mps 750 mmHg 88%
15:00 +9°C° 0.2 mm 2 mps 750 mmHg 89%
16:00 +9°C° 0.2 mm 3 mps 749 mmHg 89%
17:00 +9°C° 0.5 mm 3 mps 749 mmHg 91%
18:00 +9°C° 0.5 mm 3 mps 749 mmHg 93%
19:00 +9°C° 0.5 mm 3 mps 749 mmHg 95%
20:00 +9°C° 2.5 mm 3 mps 749 mmHg 95%
21:00 +8°C° 2.5 mm 4 mps 749 mmHg 95%
22:00 +8°C° 2.5 mm 4 mps 750 mmHg 95%
23:00 +8°C° 1.1 mm 4 mps 749 mmHg 95%

5 October, Monday

Time Temperature Precipitation Wind Pressure Humidity
00:00 +9°C° 1.1 mm 3 mps 749 mmHg 95%
01:00 +9°C° 1.1 mm 3 mps 749 mmHg 95%
02:00 +9°C° 0.1 mm 3 mps 749 mmHg 94%
03:00 +9°C° 0.1 mm 3 mps 750 mmHg 93%
04:00 +9°C° 0.1 mm 3 mps 750 mmHg 93%
05:00 +9°C° 0.1 mm 3 mps 750 mmHg 92%
06:00 +9°C° 0.1 mm 3 mps 751 mmHg 92%
07:00 +9°C° 0.1 mm 3 mps 751 mmHg 91%
08:00 +9°C° 0 mm 3 mps 751 mmHg 89%
09:00 +10°C° 0 mm 3 mps 752 mmHg 86%
10:00 +11°C° 0 mm 3 mps 752 mmHg 83%
11:00 +13°C° 0 mm 2 mps 752 mmHg 77%
12:00 +14°C° 0 mm 2 mps 752 mmHg 71%
13:00 +16°C° 0 mm 1 mps 751 mmHg 65%
14:00 +15°C° 0.1 mm 1 mps 751 mmHg 67%
15:00 +15°C° 0.1 mm 1 mps 751 mmHg 68%
16:00 +15°C° 0.1 mm 1 mps 751 mmHg 69%
17:00 +14°C° 0 mm 2 mps 751 mmHg 75%
18:00 +13°C° 0 mm 2 mps 751 mmHg 82%
19:00 +12°C° 0 mm 2 mps 750 mmHg 88%
20:00 +10°C° 0 mm 2 mps 750 mmHg 88%
21:00 +10°C° 0 mm 2 mps 750 mmHg 89%
22:00 +9°C° 0 mm 2 mps 750 mmHg 90%
23:00 +10°C° 0 mm 2 mps 750 mmHg 88%

6 October, Tuesday

Time Temperature Precipitation Wind Pressure Humidity
00:00 +10°C° 0 mm 2 mps 750 mmHg 87%
01:00 +10°C° 0 mm 2 mps 749 mmHg 85%
02:00 +12°C° 0 mm 2 mps 749 mmHg 85%
03:00 +12°C° 0 mm 2 mps 749 mmHg 84%
04:00 +11°C° 0 mm 3 mps 749 mmHg 84%
05:00 +11°C° 0 mm 3 mps 748 mmHg 85%
06:00 +10°C° 0 mm 4 mps 748 mmHg 87%
07:00 +10°C° 0 mm 4 mps 748 mmHg 88%
08:00 +12°C° 0 mm 5 mps 747 mmHg 81%
09:00 +13°C° 0 mm 6 mps 747 mmHg 74%
10:00 +14°C° 0 mm 6 mps 747 mmHg 68%
11:00 +15°C° 0 mm 7 mps 746 mmHg 64%
12:00 +16°C° 0 mm 7 mps 745 mmHg 60%
13:00 +17°C° 0 mm 8 mps 745 mmHg 57%
14:00 +17°C° 0 mm 8 mps 744 mmHg 56%
15:00 +17°C° 0 mm 7 mps 743 mmHg 55%
16:00 +17°C° 0 mm 7 mps 743 mmHg 54%
17:00 +16°C° 0 mm 7 mps 742 mmHg 59%
18:00 +15°C° 0 mm 6 mps 742 mmHg 64%
19:00 +15°C° 0 mm 6 mps 742 mmHg 69%
20:00 +15°C° 0.1 mm 6 mps 742 mmHg 70%
21:00 +16°C° 0.1 mm 7 mps 741 mmHg 72%
22:00 +16°C° 0.1 mm 8 mps 741 mmHg 73%
23:00 +16°C° 0.1 mm 7 mps 740 mmHg 77%
Show more